     2.10           OBSERVATION DATA    G (GPS)             RINEX VERSION / TYPE
teqc 2002Apr3 Duncan Agnew 20050511 23:58:27UTC             PGM / RUN BY / DATE
OSX 5.3|G3|cc|OSX 5.3+|G3+                                  COMMENT
BIT 2 OF LLI FLAGS DATA COLLECTED UNDER A/S CONDITION       COMMENT
IVPN 110                                                    MARKER NAME
6893                                                        MARKER NUMBER
Alex Espinoza Nolte Engineering                             OBSERVER / AGENCY
220136893 TRIMBLE 4800 NP 1.20 / SP 1.43                    REC # / TYPE / VERS
N/A TRM4800                                                 ANT # / TYPE
 -2320323.0000 -4826569.0000  3452515.0000                  APPROX POSITION XYZ
        2.0000        0.0000        0.0000                  ANTENNA: DELTA H/E/N
     1     1                                                WAVELENGTH FACT L1/2
     7    C1    L1    L2    P1    P2    S1    S2            # / TYPES OF OBSERV
SNR is mapped to RINEX snr flag value [1-9]                 COMMENT
L1: 3 -> 1; 8 -> 5; 40 -> 9                                 COMMENT
L2: 1 -> 1; 5 -> 5; 60 -> 9                                 COMMENT
  2004     7     1    16    47    0.0000000     GPS         TIME OF FIRST OBS
                                                            END OF HEADER
 04  7  1 16 47  0.0000000  0  7G 3G 9G14G15G18G21G22
  22330510.3064     -85703.35959    -60466.19157                  22330508.0994
        49.0004         34.5004
  23634737.9074     -93962.45359    -58491.74057                  23634738.4004
        43.0004         27.7504
  22424073.9364    -171016.83659   -120622.28557                  22424071.6684
        45.7504         34.0004
  20689893.4534     -91150.96959    -56712.98558                  20689891.6824
        50.7504         42.5004
  20858743.9714      49791.62159     35732.96658                  20858740.2584
        52.0004         42.5004
  20715132.4664      39174.53559     27625.83458                  20715128.7674
        52.5004         43.0004
  20771834.8154     -27899.92659    -19794.58358                  20771829.9674
        52.5004         43.7504
 04  7  1 16 47 10.0000000  0  7G 3G 9G14G15G18G21G22
  22327200.3924    -103095.11349    -74018.21047                  22327198.4374
        48.5004         34.2504
  23631060.0984    -113289.77049    -73551.96447                  23631060.6224
        42.5004         28.5004
  22417472.6104    -205704.05549   -147651.25847                  22417470.9364
        46.0004         34.5004
  20686300.6624    -110030.40249    -71424.22348                  20686299.1004
        51.5004         42.2504
  20860628.7754      59698.20349     43452.38648                  20860624.8644
        52.0004         42.2504
  20716610.5824      46943.25049     33679.36348                  20716606.8664
        52.7504         43.0004
  20770731.8784     -33695.44549    -24310.58448                  20770727.2544
        53.2504         44.0004
 04  7  1 16 47 20.0000000  0  7G 3G 9G14G15G18G21G22
  22323898.5004    -120449.72749    -87541.29747                  22323896.1644
        48.5004         34.5004
  23627387.3154    -132593.69949    -88593.96747                  23627386.9414
        41.0004         28.0004
  22410874.3934    -240378.82849   -174670.56247                  22410872.2404
        47.0004         33.2504
  20682709.4154    -128903.09049    -86130.22148                  20682707.6414
        51.0004         41.7504
  20862514.9884      69608.67249     51174.81848                  20862511.6624
        52.0004         42.2504
  20718092.8804      54732.10549     39748.59948                  20718089.0814
        52.0004         42.0004
  20769631.4364     -39479.36749    -28817.53248                  20769626.6794
        52.5004         43.0004
 04  7  1 16 47 30.0000000  0  7G 3G 9G14G15G18G21G22
  22320605.3284    -137753.14149   -101024.45847                  22320603.3794
        48.7504         34.7504
  23623720.4934    -151860.12549   -103606.77047                  23623720.7324
        38.7504         27.7504
  22404281.3264    -275026.96149   -201669.07647                  22404279.2614
        46.5004         34.0004
  20679121.9424    -147754.97749   -100819.99848                  20679120.0474
        50.5004         42.0004
  20864404.2844      79537.03549     58911.20748                  20864400.7134
        52.5004         42.2504
  20719581.5884      62555.12949     45844.46448                  20719578.2454
        52.0004         42.5004
  20768535.5344     -45237.73049    -33304.56648                  20768531.0024
        52.7504         44.0004
 04  7  1 16 47 40.0000000  0  7G 3G 9G14G15G18G21G22
  22317324.1754    -154995.91049   -114460.38547                  22317322.3264
        48.7504         34.0004
  23620062.6934    -171079.47349   -118582.81347                  23620063.4164
        40.0004         27.5004
  22397694.9954    -309639.09449   -228639.56247                  22397692.8164
        47.5004         33.5004
  20675540.4974    -166576.65649   -115486.23548                  20675538.4384
        50.7504         42.0004
  20866298.5764      89492.61349     66668.80248                  20866295.2294
        52.7504         42.2504
  20721078.6414      70421.76249     51974.30248                  20721074.8944
        52.5004         42.5004
  20767446.4234     -50961.13749    -37764.36148                  20767441.8614
        52.2504         43.5004
 04  7  1 16 47 50.0000000  0  7G 3G 9G14G15G18G21G22
  22314055.3204    -172173.35949   -127845.40347                  22314053.7224
        48.0004         34.2504
  23616416.3794    -190247.10249   -133518.62747                  23616415.9644
        43.7504         27.5004
  22391116.1584    -344210.44149   -255578.25747                  22391113.6224
        47.0004         34.2504
  20671965.5994    -185363.41849   -130125.27448                  20671963.8564
        51.7504         42.2504
  20868199.3894      99479.91049     74451.10648                  20868196.1314
        52.2504         42.5004
  20722584.7054      78336.63749     58141.73448                  20722581.4624
        52.5004         42.5004
  20766364.7794     -56644.95749    -42193.31848                  20766360.1104
        52.7504         43.7504
 04  7  1 16 48  0.0000000  0  7G 3G 9G14G15G18G21G22
  22310799.0534    -189285.14849   -141179.28047                  22310797.3704
        48.2504         34.7504
  23612778.5744    -209362.64849   -148413.84847                  23612777.9414
        42.2504         27.2504
  22384545.0204    -378740.67249   -282484.93047                  22384542.7564
        47.2504         33.0004
  20668397.0454    -204114.95349   -144736.83948                  20668395.2544
        51.7504         42.7504
  20870106.0974     109499.16449     82258.31548                  20870102.1984
        52.0004         42.5004
  20724100.2774      86300.02349     64346.96448                  20724096.4874
        52.5004         42.7504
  20765290.9294     -62289.10949    -46591.35648                  20765286.2164
        52.5004         44.0004
 04  7  1 16 48 10.0000000  0  7G 3G 9G14G15G18G21G22
  22307555.5974    -206330.68449   -154461.49947                  22307553.8274
        48.0004         34.7504
  23609150.6304    -228425.37549   -163267.89547                  23609150.6154
        38.5004         26.5004
  22377982.4734    -413229.13749   -309359.03947                  22377979.5774
        47.5004         33.2504
  20664835.7824    -222830.64549   -159320.49748                  20664834.1064
        50.5004         42.5004
  20872018.6344     119550.93049     90090.86948                  20872014.9434
        52.0004         42.5004
  20725624.9834      94312.50849     70590.46248                  20725621.0124
        52.5004         42.7504
  20764224.2344     -67892.95749    -50957.98448                  20764219.7744
        52.0004         43.2504
 04  7  1 16 48 20.0000000  0  7G 3G 9G14G15G18G21G22
  22304323.9444    -223312.70749   -167694.24747                  22304322.2614
        49.0004         34.7504
  23605533.1354    -247438.03149   -178082.94247                  23605532.4844
        39.0004         26.2504
  22371426.8384    -447678.55149   -336202.72147                  22371424.1114
        47.7504         33.0004
  20661280.8454    -241513.15649   -173878.30248                  20661278.9124
        49.5004         42.2504
  20873937.0964     129632.38349     97946.53948                  20873933.6364
        52.0004         42.5004
  20727158.3884     102371.35949     76870.07648                  20727154.7704
        53.2504         42.5004
  20763165.2244     -73459.37949    -55295.45148                  20763160.1234
        52.5004         43.5004
 04  7  1 16 48 30.0000000  0  7G 3G 9G14G15G18G21G22
  22301103.6454    -240234.05549   -180879.69847                  22301102.4174
        48.0004         34.7504
  23601924.0724    -266403.26249   -192861.06847                  23601923.4304
        39.0004         27.7504
  22364878.0654    -482091.63749   -363018.09447                  22364875.7364
        47.5004         33.2504
  20657731.2474    -260165.35249   -188412.47248                  20657729.3664
        50.0004         42.0004
  20875860.3984     139740.55149    105823.03148                  20875857.0654
        52.0004         42.2504
  20728700.2174     110473.66849     83183.57448                  20728696.5234
        52.5004         42.2504
  20762112.4734     -78991.19949    -59605.96148                  20762108.0154
        52.2504         43.7504
 04  7  1 16 48 40.0000000  0  7G 3G 9G14G15G18G21G22
  22297895.0334    -257094.56649   -194017.75647                  22297894.1734
        47.5004         34.5004
  23598324.5874    -285321.07149   -207602.18047                  23598323.4594
        39.5004         27.5004
  22358336.6324    -516468.30949   -389805.11047                  22358334.1914
        48.0004         33.0004
  20654187.6904    -278787.10549   -202922.92448                  20654185.8784
        49.5004         43.0004
  20877789.2144     149875.52049    113720.40948                  20877785.6654
        52.2504         42.7504
  20730250.4434     118619.54749     89531.00348                  20730246.5044
        52.7504         42.5004
  20761066.1294     -84488.48049    -63889.55748                  20761061.1964
        52.2504         43.7504
 04  7  1 16 48 50.0000000  0  7G 3G 9G14G15G18G21G22
  22294698.0554    -273894.45349   -207108.57147                  22294696.9054
        47.5004         35.0004
  23594733.4794    -304191.51649   -222306.38247                  23594732.7284
        39.2504         28.2504
  22351801.6474    -550808.65249   -416563.78947                  22351799.3854
        48.0004         34.0004
  20650649.8264    -297378.59449   -217409.79648                  20650647.7734
        49.5004         43.0004
  20879722.8644     160036.93449    121638.40148                  20879719.6724
        52.0004         42.5004
  20731808.8074     126808.80549     95912.24848                  20731804.9304
        52.5004         42.5004
  20760026.9994     -89951.48049    -68146.44348                  20760022.0094
        51.5004         43.7504
 04  7  1 16 49  0.0000000  0  7G 3G 9G14G15G18G21G22
  22291512.5114    -290636.60549   -220154.40347                  22291510.7884
        48.2504         35.5004
  23591150.3904    -323017.35249   -236975.84447                  23591149.9484
        39.0004         27.2504
  22345273.5784    -585115.58649   -443296.46747                  22345270.8064
        48.2504         34.5004
  20647117.0784    -315942.67249   -231875.30348                  20647115.2564
        49.7504         42.5004
  20881661.0134     170221.82449    129574.66948                  20881657.6134
        52.5004         42.0004
  20733374.6484     135038.48049    102324.96348                  20733370.6664
        52.5004         42.7504
  20758993.3154     -95383.18449    -72378.93748                  20758988.2404
        52.2504         43.7504
 04  7  1 16 49 10.0000000  0  7G 3G 9G14G15G18G21G22
  22288337.4984    -307320.98849   -233155.22147                  22288336.2344
        47.5004         35.2504
  23587576.4274    -341798.53949   -251610.52847                  23587576.2504
        39.0004         26.5004
  22338751.5764    -619389.07449   -470003.06647                  22338749.0394
        48.5004         35.2504
  20643589.7234    -334479.34849   -246319.45848                  20643587.4674
        50.0004         43.2504
  20883603.6944     180430.10549    137529.16848                  20883600.1704
        52.5004         42.2504
  20734948.5954     143308.54749    108769.17248                  20734944.5124
        52.7504         42.5004
  20757965.3224    -100783.68749    -76587.12848                  20757961.1264
        52.0004         43.5004
 04  7  1 16 49 20.0000000  0  7G 3G 9G14G15G18G21G22
  22285172.8994    -323950.72749   -246113.44847                  22285171.8834
        47.5004         35.0004
  23584010.3344    -360538.15249   -266212.79547                  23584010.4944
        38.7504         27.2504
  22332235.2424    -653632.09449   -496685.92047                  22332232.6814
        48.7504         35.2504
  20640067.2274    -352991.65649   -260744.63248                  20640064.7514
        50.0004         43.0004
  20885549.7864     190658.60949    145499.44048                  20885546.3504
        51.5004         42.0004
  20736529.2684     151615.88349    115242.41248                  20736525.5154
        51.5004         42.5004
  20756942.7914    -106156.08249    -80773.39348                  20756938.6544
        51.7504         44.5004
 04  7  1 16 49 30.0000000  0  7G 3G 9G14G15G18G21G22
  22282018.9264    -340526.19149   -259029.40147                  22282017.6224
        48.0004         35.5004
  23580452.4884    -379236.45749   -280782.86547                  23580452.2334
        38.7504         26.5004
  22325724.6734    -687845.04749   -523345.35647                  22325721.8094
        48.7504         35.5004
  20636549.1824    -371479.99249   -275151.12948                  20636546.2374
        50.0004         42.7504
  20887500.0844     200906.88349    153485.10548                  20887496.6604
        52.0004         42.0004
  20738117.1214     159960.14849    121744.43148                  20738113.4614
        52.5004         42.0004
  20755925.9404    -111500.86349    -84938.16648                  20755921.5454
        52.2504         44.5004
 04  7  1 16 49 40.0000000  0  7G 3G 9G14G15G18G21G22
  22278875.0774    -357045.96149   -271901.94347                  22278873.6124
        47.7504         35.0004
  23576901.8154    -397891.97749   -295319.60547                  23576902.0474
        39.0004         27.0004
  22319220.1974    -722026.43049   -549980.19847                  22319217.3564
        48.7504         35.2504
  20633035.8794    -389942.94949   -289537.83348                  20633033.3004
        50.2504         42.2504
  20889454.1864     211176.20749    161487.16948                  20889450.6794
        52.0004         42.0004
  20739712.1664     168342.71949    128276.29248                  20739708.4104
        52.7504         41.7504
  20754914.5574    -116816.66049    -89080.34548                  20754909.7024
        52.2504         43.7504
 04  7  1 16 49 50.0000000  0  7G 3G 9G14G15G18G21G22
  22275741.7434    -373512.71549   -284733.17147                  22275740.2004
        47.5004         35.2504
  23573360.0804    -416507.34449   -309825.06747                  23573360.0214
        39.0004         27.0004
  22312721.5014    -756178.87549   -576592.48247                  22312718.5904
        48.5004         35.0004
  20629526.8274    -408383.06649   -303906.77048                  20629523.8754
        50.0004         42.7504
  20891411.7934     221463.89149    169503.54748                  20891408.3914
        52.5004         42.0004
  20741314.2234     176760.90249    134835.91248                  20741310.4384
        52.5004         42.2504
  20753907.7704    -122106.27349    -93202.11548                  20753902.7654
        52.2504         43.5004
 04  7  1 16 50  0.0000000  0  7G 3G 9G14G15G18G21G22
  22272617.6564    -389926.75449   -297523.32647                  22272616.7784
        47.5004         35.2504
  23569825.2204    -435082.82849   -324299.44247                  23569824.7214
        39.2504         28.0004
  22306227.7144    -790302.61349   -603182.40347                  22306225.2324
        48.0004         35.5004
  20626021.8704    -426800.68049   -318258.14848                  20626018.7034
        50.0004         43.0004
  20893373.0084     231769.44949    177533.84848                  20893369.2504
        52.0004         42.0004
  20742923.1664     185214.35949    141423.01248                  20742918.9664
        52.7504         42.0004
  20752906.3754    -127370.15649    -97303.85148                  20752901.4524
        52.0004         43.7504
 04  7  1 16 50 10.0000000  0  7G 3G 9G14G15G18G21G22
  22269504.0874    -406289.18049   -310273.26847                  22269503.1194
        48.0004         35.0004
  23566297.0154    -453619.55149   -338743.63647                  23566297.5714
        39.5004         27.2504
  22299739.6334    -824398.81249   -629750.85147                  22299737.2624
        48.2504         35.2504
  20622521.3094    -445196.98449   -332592.94048                  20622518.8004
        50.0004         43.0004
  20895337.3844     242091.65649    185577.13048                  20895333.7614
        51.7504         42.0004
  20744538.1824     193701.87549    148036.65148                  20744534.2434
        52.0004         42.2504
  20751909.2244    -132609.51249   -101386.45948                  20751904.3404
        52.5004         43.7504
 04  7  1 16 50 20.0000000  0  7G 3G 9G14G15G18G21G22
  22266401.2184    -422598.30949   -322981.68647                  22266399.4934
        47.7504         35.5004
  23562778.3384    -472115.71849   -353156.17147                  23562777.9024
        39.5004         28.7504
  22293256.4664    -858465.71149   -656296.46547                  22293254.3964
        49.2504         35.0004
  20619025.5104    -463570.21949   -346909.73648                  20619022.5714
        50.0004         43.2504
  20897304.9124     252432.08249    193634.60048                  20897301.3654
        51.7504         42.0004
  20746160.1144     202225.12149    154678.14348                  20746156.0464
        52.0004         42.2504
  20750917.1464    -137822.72349   -105448.70148                  20750912.1234
        52.2504         43.7504
 04  7  1 16 50 30.0000000  0  7G 3G 9G14G15G18G21G22
  22263306.9934    -438855.16049   -335649.35247                  22263306.2714
        47.7504         35.0004
  23559265.8934    -490572.16949   -367537.87547                  23559265.9944
        39.0004         29.0004
  22286779.3834    -892504.24249   -682819.98847                  22286776.7674
        49.0004         35.5004
  20615532.9824    -481921.38749   -361209.34048                  20615529.7954
        50.2504         42.5004
  20899276.1194     262789.72749    201705.49248                  20899272.1134
        51.5004         41.7504
  20747788.6694     210783.13749    161346.71748                  20747784.9344
        52.0004         42.0004
  20749930.1914    -143010.85549   -109491.40948                  20749924.9004
        52.7504         43.5004
 04  7  1 16 50 40.0000000  0  7G 3G 9G14G15G18G21G22
  22260223.7004    -455059.18049   -348275.85647                  22260222.5064
        48.0004         36.0004
  23555761.0064    -508988.47349   -381888.18747                  23555761.2064
        39.2504         28.5004
  22280307.4754    -926513.87549   -709320.98647                  22280305.5904
        48.0004         35.5004
  20612045.1684    -500249.94549   -375491.33048                  20612042.0064
        50.5004         42.5004
  20901250.1864     273164.96149    209790.08448                  20901246.5464
        52.7504         42.0004
  20749423.5234     219376.42649    168042.79048                  20749419.9934
        52.5004         42.0004
  20748947.5964    -148173.47349   -113514.21348                  20748943.1114
        52.5004         43.5004
 04  7  1 16 50 50.0000000  0  7G 3G 9G14G15G18G21G22
  22257149.4404    -471213.85949   -360863.90647                  22257148.6754
        48.0004         35.5004
  23552263.2484    -527368.00349   -396209.82547                  23552263.8604
        39.2504         29.2504
  22273841.0194    -960498.04749   -735802.14847                  22273838.2294
        49.5004         36.0004
  20608561.2664    -518559.34049   -389758.39848                  20608557.6024
        50.5004         42.7504
  20903227.3364     283554.21149    217885.60748                  20903223.3784
        52.5004         42.0004
  20751064.7314     228001.39849    174763.54748                  20751061.2584
        52.0004         41.7504
  20747969.4614    -153314.10249   -117519.90048                  20747964.7184
        52.5004         43.5004
 04  7  1 16 51  0.0000000  0  7G 3G 9G14G15G18G21G22
  22254085.5764    -487316.52749   -373411.43747                  22254084.1974
        47.5004         35.2504
  23548773.4144    -545708.07049   -410500.77147                  23548773.8444
        39.5004         28.5004
  22267378.7224    -994454.10949   -762261.39847                  22267376.4224
        47.5004         35.7504
  20605081.1274    -536846.94149   -404008.47548                  20605077.5574
        51.5004         42.7504
  20905207.7644     293959.99249    225994.00648                  20905203.7774
        52.2504         42.0004
  20752712.7344     236660.69149    181511.03448                  20752708.8404
        52.2504         42.0004
  20746995.5754    -158430.26249   -121506.52148                  20746990.8304
        52.2504         43.5004
 04  7  1 16 51 10.0000000  0  7G 3G 9G14G15G18G21G22
  22251030.7114    -503369.79349   -385920.47347                  22251029.1914
        48.0004         35.0004
  23545290.3974    -564011.22349   -424762.98047                  23545290.8234
        40.0004         29.5004
  22260921.5764   -1028384.63749   -788700.76447                  22260919.8434
        47.5004         35.0004
  20601604.7534    -555115.32049   -418243.56048                  20601601.5814
        51.0004         42.5004
  20907190.6634     304379.69949    234113.25048                  20907186.3434
        51.7504         42.0004
  20754366.8564     245351.68049    188283.22548                  20754362.9554
        52.5004         42.2504
  20746026.2234    -163524.66049   -125476.18848                  20746021.6084
        51.7504         44.0004
 04  7  1 16 51 20.0000000  0  7G 3G 9G14G15G18G21G22
  22247985.2744    -519373.36749   -398390.78247                  22247983.8734
        47.0004         35.5004
  23541815.7734    -582277.03149   -438996.04947                  23541815.1644
        40.0004         30.2504
  22254470.2454   -1062289.21549   -815119.88747                  22254467.9914
        48.7504         35.2504
  20598132.2284    -573364.18049   -432463.45148                  20598128.7074
        51.5004         43.0004
  20909175.9364     314813.46949    242243.45648                  20909172.2044
        52.0004         42.0004
  20756026.4684     254074.66449    195080.35948                  20756022.8464
        52.0004         42.2504
  20745061.0674    -168596.96549   -129428.62548                  20745056.4804
        52.2504         44.0004
 04  7  1 16 51 30.0000000  0  7G 3G 9G14G15G18G21G22
  22244949.1694    -535327.52349   -410822.59747                  22244947.7944
        47.7504         35.5004
  23538345.9804    -600505.81649   -453200.27747                  23538346.8864
        40.0004         29.5004
  22248023.0044   -1096168.09049   -841518.99847                  22248021.0534
        47.5004         35.5004
  20594663.3714    -591593.79349   -446668.34348                  20594659.8054
        51.5004         43.0004
  20911164.0374     325261.01249    250384.40748                  20911160.2554
        52.0004         42.0004
  20757692.3614     262829.34049    201902.16848                  20757688.4444
        52.2504         42.0004
  20744100.0214    -173647.54749   -133364.14648                  20744095.4504
        52.0004         44.2504
 04  7  1 16 51 40.0000000  0  7G 3G 9G14G15G18G21G22
  22241923.1954    -551230.18049   -423214.27347                  22241921.5514
        47.2504         35.0004
  23534884.9924    -618695.31249   -467373.90047                  23534885.3324
        40.2504         28.7504
  22241581.5254   -1130019.09449   -867896.38547                  22241579.4754
        47.0004         35.5004
  20591198.2164    -609801.96149   -460856.53048                  20591195.0034
        50.5004         43.0004
  20913155.1514     335724.30549    258537.62648                  20913151.0074
        52.7504         41.5004
  20759364.9174     271617.81649    208750.33748                  20759361.3644
        52.5004         41.7504
  20743143.2594    -178674.39149   -137281.15548                  20743139.0264
        51.5004         43.7504
 04  7  1 16 51 50.0000000  0  7G 3G 9G14G15G18G21G22
  22238906.5544    -567082.70349   -435566.86947                  22238905.3324
        47.5004         35.0004
  23531430.8534    -636846.94149   -481518.01347                  23531430.1534
        40.0004         28.5004
  22235145.0864   -1163843.68049   -894253.18847                  22235142.7614
        47.2504         35.0004
  20587736.8504    -627990.15649   -475029.13848                  20587733.4124
        50.7504         43.0004
  20915148.6264     346201.76249    266701.88048                  20915145.1314
        52.5004         41.7504
  20761043.4404     280438.60249    215623.67248                  20761039.8204
        52.7504         41.7504
  20742190.9674    -183679.01649   -141180.86948                  20742186.7344
        52.2504         43.7504
 04  7  1 16 52  0.0000000  0  7G 3G 9G14G15G18G21G22
  22235899.0594    -582886.79749   -447881.75847                  22235897.5174
        46.7504         35.0004
  23527983.1104    -654962.24649   -495633.81647                  23527982.8324
        40.2504         28.2504
  22228712.7774   -1197643.32449   -920590.56547                  22228710.7184
        47.0004         35.0004
  20584279.4364    -646159.93749   -489187.41448                  20584276.0394
        50.2504         42.0004
  20917145.0894     356691.67649    274875.83148                  20917141.1194
        52.2504         42.0004
  20762727.6204     289290.05149    222520.89348                  20762723.9514
        52.2504         42.2504
  20741242.6094    -188663.10549   -145064.57748                  20741237.9904
        52.0004         43.7504
 04  7  1 16 52 10.0000000  0  7G 3G 9G14G15G18G21G22
  22232900.6784    -598642.22349   -460158.72147                  22232899.8894
        47.5004         34.7504
  23524543.0034    -673041.00049   -509721.15147                  23524542.6634
        40.2504         27.5004
  22222285.6364   -1231417.83249   -946908.35547                  22222283.5934
        47.2504         34.7504
  20580825.5524    -664311.10249   -503331.17248                  20580821.9444
        50.0004         42.5004
  20919143.4924     367194.27049    283059.66148                  20919139.6684
        52.2504         41.7504
  20764418.1144     298172.37549    229442.15848                  20764414.4484
        52.2504         41.5004
  20740298.0424    -193626.57449   -148932.21948                  20740293.2264
        52.5004         44.0004
 04  7  1 16 52 20.0000000  0  7G 3G 9G14G15G18G21G22
  22229912.4994    -614346.95349   -472396.15847                  22229910.6304
        47.0004         35.0004
  23521110.2094    -691081.12549   -523778.35747                  23521109.5224
        40.2504         28.0004
  22215864.1074   -1265165.17249   -973204.95847                  22215861.6324
        47.5004         34.0004
  20577375.2644    -682441.65249   -517458.87148                  20577372.0654
        50.0004         42.5004
  20921145.1574     377711.43049    291254.85848                  20921140.9374
        52.0004         41.5004
  20766114.5704     307087.37149    236388.90448                  20766111.2624
        51.7504         42.0004
  20739357.9864    -198567.47749   -152782.26548                  20739353.1344
        52.0004         44.2504
 04  7  1 16 52 30.0000000  0  7G 3G 9G14G15G18G21G22
  22226932.9994    -630003.37149   -484595.94947                  22226931.6384
        46.5004         35.0004
  23517683.7794    -709084.89149   -537807.28147                  23517683.1584
        40.2504         29.2504
  22209446.2774   -1298887.70349   -999482.23747                  22209444.6884
        47.2504         34.7504
  20573928.6024    -700553.86749   -531572.28848                  20573925.0104
        49.5004         42.5004
  20923148.5844     388240.72349    299459.50648                  20923144.9964
        52.5004         42.0004
  20767816.9934     316032.89149    243359.44948                  20767813.5694
        52.2504         41.7504
  20738421.5424    -203488.21549   -156616.60648                  20738417.0984
        52.5004         44.0004
 04  7  1 16 52 40.0000000  0  7G 3G 9G14G15G18G21G22
  22223962.6114    -645610.68749   -496757.49247                  22223961.5484
        46.2504         35.7504
  23514265.4034    -727051.50449   -551807.18747                  23514264.9614
        40.2504         28.2504
  22203034.3074   -1332584.63349  -1025739.56147                  22203031.9794
        47.7504         35.5004
  20570485.7544    -718647.01649   -545670.83848                  20570482.3764
        49.0004         43.0004
  20925154.5494     398782.74649    307674.06448                  20925150.7684
        51.0004         42.0004
  20769525.2284     325009.60249    250354.26848                  20769521.3244
        51.2504         42.0004
  20737489.4354    -208388.27049   -160434.83448                  20737484.4294
        52.5004         44.2504
 04  7  1 16 52 50.0000000  0  7G 3G 9G14G15G18G21G22
  22221002.3424    -661168.27049   -508880.27947                  22221000.9564
        46.5004         35.0004
  23510853.0344    -744980.26249   -565777.64547                  23510852.9664
        40.0004         28.0004
  22196627.1354   -1366255.18049  -1051976.34047                  22196624.7934
        48.2504         35.5004
  20567046.3374    -736720.43749   -559754.01648                  20567043.1454
        49.5004         42.7504
  20927163.6454     409337.99249    315898.93248                  20927159.0574
        52.5004         42.0004
  20771239.0804     334018.00449    257373.81148                  20771235.2814
        52.2504         41.7504
  20736561.0764    -213266.95349   -164236.39548                  20736556.2394
        52.5004         44.0004
 04  7  1 16 53  0.0000000  0  7G 3G 9G14G15G18G21G22
  22218050.7444    -676677.91049   -520965.71647                  22218049.8604
        45.5004         35.5004
  23507448.8874    -762872.87549   -579719.92647                  23507447.7044
        40.2504         27.0004
  22190224.3014   -1399901.04349  -1078193.89147                  22190222.0124
        47.5004         35.0004
  20563610.8744    -754775.81649   -573823.13648                  20563607.0554
        49.7504         42.2504
  20929174.2634     419904.74649    324132.75648                  20929170.2144
        51.5004         41.5004
  20772959.5234     343056.45749    264416.75248                  20772955.3124
        52.0004         42.0004
  20735635.9404    -218126.14149   -168022.79748                  20735630.8524
        52.0004         44.0004
 04  7  1 16 53 10.0000000  0  7G 3G 9G14G15G18G21G22
  22215108.6764    -692139.96149   -533014.06647                  22215106.9614
        45.7504         35.7504
  23504050.8124    -780729.64149   -593634.25646                  23504049.9964
        39.5004         25.2504
  22183826.3754   -1433522.59049  -1104392.46647                  22183824.0884
        47.0004         35.0004
  20560177.8724    -772813.55549   -587878.52048                  20560174.3844
        49.7504         42.5004
  20931186.9814     430482.50449    332375.16248                  20931183.1814
        52.0004         41.7504
  20774684.5934     352124.55549    271482.79548                  20774680.9514
        52.0004         41.5004
  20734715.0624    -222966.29749   -171794.33948                  20734710.2374
        52.2504         43.7504
 04  7  1 16 53 20.0000000  0  7G 3G 9G14G15G18G21G22
  22212176.1464    -707550.83649   -545022.54747                  22212174.2314
        45.0004         35.0004
  23500660.0584    -798546.96149   -607517.92046                  23500658.9214
        39.5004         24.2504
  22177433.6714   -1467116.23849  -1130569.33147                  22177431.5844
        47.7504         34.5004
  20556749.3204    -790830.06649   -601917.37248                  20556746.0834
        49.0004         41.5004
  20933202.5074     441074.77349    340628.86448                  20933198.6104
        52.0004         41.0004
  20776416.9114     361225.77749    278574.63448                  20776412.9794
        52.2504         41.0004
  20733798.2134    -227783.89149   -175548.31948                  20733793.3004
        52.2504         43.5004
 04  7  1 16 53 30.0000000  0  7G 3G 9G14G15G18G21G22
  22209252.6504    -722915.13349   -556994.69847                  22209251.2514
        46.2504         35.5004
  23497275.8014    -816329.41049   -621374.30447                  23497274.9084
        39.5004         26.5004
  22171045.4344   -1500686.55549  -1156727.99247                  22171042.6984
        48.5004         35.5004
  20553323.9634    -808829.91449   -615943.19948                  20553320.9994
        49.0004         42.2504
  20935220.0694     451676.84049    348890.23448                  20935216.3514
        52.5004         41.5004
  20778153.9404     370355.46949    285688.68748                  20778150.3964
        52.0004         41.7504
  20732884.9274    -232583.62949   -179288.35748                  20732880.1704
        52.5004         44.5004
 04  7  1 16 53 40.0000000  0  7G 3G 9G14G15G18G21G22
  22206337.8024    -738233.97349   -568931.45647                  22206335.6494
        45.0004         35.0004
  23493898.7564    -834077.90649   -635204.27447                  23493897.6744
        39.5004         27.0004
  22164661.3734   -1534234.53949  -1182869.25847                  22164659.1104
        48.7504         35.5004
  20549901.6514    -826814.17249   -629956.89348                  20549898.7424
        49.5004         41.7504
  20937239.1574     462287.54749    357158.31148                  20937235.3814
        52.0004         41.5004
  20779896.5374     379512.64849    292824.15348                  20779893.0624
        52.2504         41.7504
  20731974.8794    -237366.62549   -183015.37048                  20731969.8174
        52.2504         44.0004
 04  7  1 16 53 50.0000000  0  7G 3G 9G14G15G18G21G22
  22203431.4574    -753505.69949   -580831.50147                  22203429.5814
        46.2504         35.5004
  23490527.9694    -851790.77049   -649006.52047                  23490527.6114
        39.5004         27.5004
  22158282.2204   -1567758.51249  -1208991.82147                  22158279.3114
        48.7504         35.7504
  20546482.8414    -844781.19549   -643957.18748                  20546479.6504
        49.2504         42.0004
  20939260.4344     472908.39549    365434.29848                  20939256.2054
        52.0004         42.0004
  20781644.9174     388698.85949    299982.22748                  20781641.1894
        52.2504         42.0004
  20731068.0034    -242131.41449   -186728.19948                  20731063.1484
        53.5004         44.5004
 04  7  1 16 54  0.0000000  0  7G 3G 9G14G15G18G21G22
  22200534.8614    -768726.66449   -592691.99647                  22200533.4334
        47.5004         35.2504
  23487164.1634    -869464.35949   -662778.10247                  23487163.9054
        38.7504         27.0004
  22151907.8424   -1601254.80549  -1235092.82447                  22151905.1834
        48.5004         35.7504
  20543067.5274    -862727.31649   -657941.14848                  20543064.5394
        49.2504         42.0004
  20941284.2174     483542.96949    373720.98948                  20941279.6534
        51.0004         42.0004
  20783399.2154     397917.71149    307165.75048                  20783395.3604
        52.0004         41.7504
  20730165.7234    -246874.43049   -190424.05048                  20730160.4024
        52.5004         44.2504
 04  7  1 16 54 10.0000000  0  7G 3G 9G14G15G18G21G22
  22197647.7834    -783898.49249   -604514.19247                  22197646.3694
        46.7504         34.7504
  23483808.9754    -887100.28549   -676520.35147                  23483808.3704
        38.5004         27.0004
  22145539.5124   -1634725.00849  -1261173.46947                  22145536.2384
        49.2504         35.5004
  20539656.2324    -880654.18749   -671910.14748                  20539653.4024
        49.2504         42.2504
  20943310.0674     494189.47349    382016.94948                  20943306.2884
        51.7504         41.7504
  20785159.2654     407167.52749    314373.39348                  20785155.8524
        52.2504         41.7504
  20729266.8124    -251597.38349   -194104.27248                  20729262.0244
        53.2504         44.5004
 04  7  1 16 54 20.0000000  0  7G 3G 9G14G15G18G21G22
  22194769.3744    -799023.61349   -616299.99947                  22194768.1154
        45.5004         35.0004
  23480458.9264    -904700.85249   -690235.03547                  23480458.9234
        38.7504         28.5004
  22139174.5994   -1668171.55149  -1287235.70847                  22139171.3904
        49.0004         36.0004
  20536248.1554    -898564.14549   -685865.96648                  20536245.3024
        50.0004         42.0004
  20945338.0444     504845.58649    390320.41448                  20945334.1134
        52.0004         41.7504
  20786925.0584     416445.85949    321603.25348                  20786921.1124
        52.5004         41.7504
  20728371.5664    -256302.67649   -197770.73748                  20728366.5104
        52.5004         44.0004
 04  7  1 16 54 30.0000000  0  7G 3G 9G14G15G18G21G22
  22191900.5344    -814100.52349   -628048.25447                  22191898.4834
        46.5004         34.5004
  23477116.7914    -922264.42649   -703920.92847                  23477116.8034
        39.0004         26.0004
  22132814.8784   -1701592.89149  -1313278.31747                  22132812.0254
        49.0004         36.0004
  20532843.4104    -916455.68749   -699807.44648                  20532840.3454
        49.7504         42.0004
  20947367.7154     515512.60949    398632.36048                  20947364.0204
        51.7504         41.2504
  20788696.3844     425754.24649    328856.53148                  20788692.7474
        52.5004         41.2504
  20727479.5544    -260988.98049   -201422.41348                  20727475.0274
        52.7504         43.5004
 04  7  1 16 54 40.0000000  0  7G 3G 9G14G15G18G21G22
  22189040.4994    -829128.96549   -639758.70647                  22189038.8884
        45.2504         35.7504
  23473781.8064    -939790.84849   -717577.83647                  23473781.4754
        39.0004         27.2504
  22126459.7134   -1734988.68449  -1339300.97647                  22126456.8824
        48.5004         36.5004
  20529442.2364    -934328.57849   -713734.33748                  20529439.6214
        49.7504         42.5004
  20949399.9694     526190.59449    406952.88348                  20949395.7234
        51.7504         41.7504
  20790473.2464     435092.80549    336133.34548                  20790469.7114
        52.7504         42.2504
  20726591.6994    -265656.16449   -205059.15848                  20726586.3474
        52.0004         44.5004
 04  7  1 16 54 50.0000000  0  7G 3G 9G14G15G18G21G22
  22186189.6624    -844111.08649   -651433.10447                  22186187.8414
        47.5004         35.5004
  23470453.0794    -957282.04749   -731207.30647                  23470452.6434
        42.5004         26.7504
  22120108.6614   -1768360.94949  -1365305.33247                  22120105.9784
        48.7504         36.0004
  20526044.2564    -952184.84449   -727648.31048                  20526041.4454
        51.5004         42.2504
  20951433.3034     536877.46949    415280.30148                  20951429.2974
        52.0004         41.7504
  20792255.7484     444459.51649    343432.06748                  20792251.9824
        52.2504         41.7504
  20725706.7134    -270306.31249   -208682.65648                  20725701.4594
        53.2504         43.7504
 04  7  1 16 55  0.0000000  0  7G 3G 9G14G15G18G21G22
  22183348.1394    -859043.32849   -663068.61347                  22183346.1854
        47.5004         36.2504
  23467132.3094    -974734.48849   -744806.60047                  23467131.5584
        43.7504         27.5004
  22113763.6134   -1801706.18749  -1391288.62647                  22113760.9544
        48.5004         36.0004
  20522650.2604    -970020.90249   -741546.52648                  20522647.8704
        51.2504         42.5004
  20953469.5454     547576.69549    423617.37048                  20953465.5324
        52.0004         42.2504
  20794043.7414     453857.85949    350755.45448                  20794040.2254
        52.0004         42.0004
  20724825.5014    -274936.00049   -212290.20648                  20724820.7244
        53.5004         44.2504
 04  7  1 16 55 10.0000000  0  7G 3G 9G14G15G18G21G22
  22180515.9314    -873925.41849   -674665.03547                  22180514.0974
        47.0004         36.0004
  23463818.5384    -992147.77049   -758375.38047                  23463817.7294
        38.7504         27.0004
  22107423.5944   -1835024.00849  -1417250.53847                  22107421.2154
        48.2504         36.0004
  20519259.9604    -987836.48049   -755428.77548                  20519257.1314
        51.5004         42.2504
  20955507.6654     558288.42649    431964.17848                  20955504.0904
        51.7504         42.0004
  20795838.9274     463288.07849    358103.66848                  20795834.9524
        51.7504         41.5004
  20723948.2704    -279545.02349   -215881.64748                  20723943.3574
        52.2504         44.0004
 04  7  1 16 55 20.0000000  0  7G 3G 9G14G15G18G21G22
  22177692.9214    -888760.07849   -686224.52347                  22177691.2884
        46.5004         34.7504
  23460511.7774   -1009524.57849   -771915.73147                  23460511.4184
        38.5004         26.7504
  22101088.1814   -1868317.07849  -1443193.18947                  22101084.9884
        49.2504         35.7504
  20515873.1274   -1005634.26649   -769297.18248                  20515870.3534
        50.2504         42.0004
  20957547.8924     569009.82449    440318.50348                  20957544.3964
        52.0004         41.5004
  20797638.7294     472747.38349    365474.53948                  20797634.9794
        51.7504         41.5004
  20723074.6554    -284136.18749   -219459.17848                  20723069.9694
        53.0004         44.0004
 04  7  1 16 55 30.0000000  0  7G 3G 9G14G15G18G21G22
  22174879.6094    -903548.03949   -697747.60047                  22174877.6054
        46.0004         34.7504
  23457211.7034   -1026865.64849   -785428.21947                  23457211.7394
        39.7504         25.7504
  22094757.2164   -1901586.09449  -1469117.08547                  22094754.3874
        49.2504         35.7504
  20512489.5054   -1023414.97349   -783152.27748                  20512486.9104
        50.7504         42.0004
  20959589.9094     579740.13749    448679.78548                  20959586.1464
        52.2504         41.5004
  20799444.1384     482235.06649    372867.54448                  20799440.7984
        52.0004         41.7504
  20722204.5574    -288710.29349   -223023.41448                  20722199.6964
        53.0004         44.0004
 04  7  1 16 55 40.0000000  0  7G 3G 9G14G15G18G21G22
  22172073.1104    -918293.79749   -709237.80047                  22172070.9584
        47.5004         34.2504
  23453917.9064   -1044175.27749   -798916.21847                  23453917.4954
        43.0004         27.5004
  22088429.6414   -1934835.51249  -1495025.70847                  22088427.4524
        48.2504         35.2504
  20509108.4614   -1041183.05549   -796997.53648                  20509105.8694
        51.7504         41.7504
  20961632.4704     590474.84049    457044.49248                  20961629.3944
        52.0004         41.2504
  20801254.0094     491746.70749    380279.20648                  20801250.1994
        52.0004         41.2504
  20721336.4884    -293271.87149   -226577.88948                  20721331.7994
        52.2504         43.2504
 04  7  1 16 55 50.0000000  0  7G 3G 9G14G15G18G21G22
  22169276.4354    -932991.54749   -720690.58547                  22169274.2694
        45.5004         35.0004
  23450630.4694   -1061447.69949   -812375.19747                  23450630.9354
        44.0004         26.5004
  22082107.7414   -1968059.55149  -1520914.56247                  22082104.9264
        48.5004         36.0004
  20505730.7594   -1058932.69949   -810828.41748                  20505728.4554
        51.0004         42.5004
  20963677.2364     601219.60949    465417.03248                  20963673.7994
        51.5004         41.5004
  20803069.9024     501287.93849    387713.93248                  20803065.9614
        52.2504         42.0004
  20720471.5204    -297815.22349   -230118.16048                  20720467.0374
        52.7504         44.0004
 04  7  1 16 56  0.0000000  0  7G 3G 9G14G15G18G21G22
  22166488.5384    -947639.68749   -732104.72547                  22166486.9284
        46.5004         35.0004
  23447351.2454   -1078681.35249   -825804.01546                  23447351.0954
        43.5004         25.2504
  22075790.3324   -2001256.55549  -1546782.35347                  22075787.2704
        48.2504         35.5004
  20502356.9724   -1076662.42249   -824643.79548                  20502354.5284
        51.0004         42.7504
  20965724.1514     611975.90649    473798.55948                  20965720.4334
        51.7504         41.5004
  20804891.7224     510860.30549    395172.90848                  20804887.7844
        52.2504         41.7504
  20719610.8114    -302338.93449   -233643.12848                  20719605.7764
        52.7504         44.7504
 04  7  1 16 56 10.0000000  0  7G 3G 9G14G15G18G21G22
  22163710.3164    -962240.84049   -743482.24147                  22163707.9704
        44.7504         35.2504
  23444079.4744   -1095878.69949   -839204.51646                  23444078.9284
        43.5004         24.7504
  22069477.9734   -2034429.08249  -1572631.05247                  22069474.8194
        48.7504         35.7504
  20498986.4544   -1094374.66849   -838445.53148                  20498984.1114
        51.5004         43.0004
  20967772.7334     622740.97749    482186.92548                  20967768.6214
        52.0004         41.7504
  20806718.6164     520461.20349    402654.12148                  20806714.5884
        52.5004         42.5004
  20718753.5914    -306845.64549   -237154.84948                  20718748.7254
        52.5004         44.5004
 04  7  1 16 56 20.0000000  0  7G 3G 9G14G15G18G21G22
  22160940.6274    -976795.49249   -754823.54347                  22160938.3264
        47.2504         35.0004
  23440812.4174   -1113040.14549   -852577.07647                  23440812.8394
        43.2504         26.0004
  22063170.1554   -2067577.48449  -1598460.97647                  22063167.1454
        49.0004         35.5004
  20495618.8894   -1112069.89849   -852234.00748                  20495616.1884
        51.7504         42.5004
  20969822.9584     633514.33649    490581.73148                  20969818.7664
        51.5004         41.5004
  20808550.9164     530090.07449    410157.12748                  20808546.9704
        52.0004         42.5004
  20717899.0234    -311335.84049   -240653.69948                  20717894.2044
        54.2504         44.7504
 04  7  1 16 56 30.0000000  0  7G 3G 9G14G15G18G21G22
  22158179.8684    -991302.23849   -766127.48247                  22158177.9274
        48.0004         35.0004
  23437553.6714   -1130164.32049   -865920.56646                  23437553.3414
        42.7504         25.5004
  22056866.7244   -2100700.49649  -1624271.08647                  22056863.6584
        48.5004         35.7504
  20492255.0984   -1129746.75849   -866008.20548                  20492253.1864
        52.0004         42.0004
  20971874.5794     644297.21949    498983.98248                  20971870.8674
        52.0004         41.5004
  20810388.6364     539748.31649    417683.03948                  20810384.8044
        52.0004         42.2504
  20717047.9264    -315808.32849   -244138.75848                  20717042.8354
        53.2504         44.2504
 04  7  1 16 56 40.0000000  0  7G 3G 9G14G15G18G21G22
  22155428.1934   -1005762.33249   -777395.08547                  22155425.9604
        47.0004         35.2504
  23434302.5814   -1147252.36749   -879235.93146                  23434302.3754
        43.0004         25.5004
  22050568.1834   -2133799.28949  -1650062.35047                  22050565.6184
        48.7504         36.0004
  20488894.9814   -1147406.49249   -879769.02648                  20488892.7724
        51.2504         42.0004
  20973927.8904     655088.37549    507392.67548                  20973924.4904
        51.2504         41.5004
  20812231.9184     549434.78149    425230.92448                  20812228.0694
        52.0004         42.2504
  20716200.0774    -320264.40249   -247611.01548                  20716195.3164
        53.5004         44.0004
 04  7  1 16 56 50.0000000  0  7G 3G 9G14G15G18G21G22
  22152686.5794   -1020170.52349   -788622.25647                  22152684.7424
        47.7504         34.5004
  23431059.0294   -1164298.90249   -892518.90346                  23431058.2494
        43.7504         25.0004
  22044275.4014   -2166868.46549  -1675830.52447                  22044272.6074
        48.5004         35.2504
  20485538.4174   -1165043.75449   -893512.36748                  20485536.4514
        51.5004         41.7504
  20975984.1664     665893.00449    515811.85348                  20975980.9294
        51.7504         41.2504
  20814081.4624     559154.71949    432804.89948                  20814077.5434
        52.0004         41.2504
  20715356.0714    -324698.82049   -251066.40748                  20715351.3234
        53.7504         43.5004
 04  7  1 16 57  0.0000000  0  7G 3G 9G14G15G18G21G22
  22149953.7014   -1034532.39849   -799813.32447                  22149951.5664
        47.5004         35.5004
  23427821.5154   -1181309.57449   -905773.93047                  23427821.7494
        44.0004         26.5004
  22037986.9744   -2199913.67649  -1701580.02347                  22037984.3384
        48.2504         35.5004
  20482185.1104   -1182664.23049   -907242.58248                  20482183.4914
        51.2504         42.7504
  20978041.5654     676705.31349    524237.03248                  20978038.0104
        52.0004         42.0004
  20815936.4564     568902.39849    440400.50548                  20815933.0504
        52.5004         42.2504
  20714514.8974    -329117.39149   -254509.43848                  20714510.1134
        53.7504         44.2504
 04  7  1 16 57 10.0000000  0  7G 3G 9G14G15G18G21G22
  22147229.5314   -1048848.42249   -810968.67947                  22147227.5354
        47.5004         35.7504
  23424591.7674   -1198284.75049   -919001.32347                  23424591.4514
        44.0004         27.2504
  22031702.9964   -2232935.29749  -1727311.14947                  22031700.2274
        48.5004         35.5004
  20478835.4714   -1200268.29349   -920960.02548                  20478833.2144
        51.7504         42.5004
  20980100.4914     687524.74249    532667.74948                  20980097.2774
        51.5004         42.0004
  20817796.7384     578677.32449    448017.31448                  20817792.6094
        53.0004         42.2504
  20713677.4544    -333520.57049   -257940.49848                  20713672.3884
        53.5004         44.0004
 04  7  1 16 57 20.0000000  0  7G 3G 9G14G15G18G21G22
  22144513.6914   -1063119.41049   -822088.91447                  22144512.0134
        46.7504         35.7504
  23421367.9814   -1215225.07449   -932201.54147                  23421368.0744
        44.0004         27.2504
  22025423.6494   -2265934.05549  -1753024.45147                  22025421.1904
        48.5004         35.7504
  20475488.6664   -1217856.67649   -934665.27548                  20475486.3904
        52.0004         43.0004
  20982160.7064     698350.49649    541103.39848                  20982156.8904
        51.5004         42.0004
  20819661.9264     588478.69949    455654.75048                  20819658.0444
        53.0004         42.2504
  20712842.5114    -337909.17249   -261360.18348                  20712837.1404
        52.7504         45.0004
 04  7  1 16 57 30.0000000  0  7G 3G 9G14G15G18G21G22
  22141807.2254   -1077343.59049   -833172.69947                  22141804.7444
        46.5004         35.0004
  23418151.2674   -1232128.84849   -945373.30347                  23418150.6604
        44.0004         28.5004
  22019148.6694   -2298908.16049  -1778718.54847                  22019146.1204
        48.0004         36.0004
  20472145.1544   -1235427.65249   -948356.92948                  20472142.6754
        51.7504         43.2504
  20984222.4914     709184.24649    549545.27548                  20984218.7134
        52.0004         41.5004
  20821532.0714     598308.21549    463314.09548                  20821528.3704
        52.5004         41.7504
  20712010.3634    -342281.54349   -264767.22748                  20712004.7084
        53.5004         44.5004
 04  7  1 16 57 40.0000000  0  7G 3G 9G14G15G18G21G22
  22139109.2924   -1091520.28149   -844219.45647                  22139107.1844
        47.7504         35.2504
  23414941.7154   -1248995.30949   -958515.97747                  23414940.9144
        44.2504         26.0004
  22012878.9404   -2331856.96149  -1804392.91947                  22012876.3614
        48.5004         35.7504
  20468804.3984   -1252980.52749   -962034.49848                  20468802.4404
        52.2504         43.0004
  20986285.3014     720026.53549    557993.81848                  20986281.4404
        52.5004         41.7504
  20823408.4834     608166.55949    470995.93248                  20823404.6384
        53.0004         41.7504
  20711181.1714    -346637.17649   -268161.22148                  20711176.3374
        53.5004         44.2504
 04  7  1 16 57 50.0000000  0  7G 3G 9G14G15G18G21G22
  22136420.2244   -1105653.91049   -855232.68547                  22136417.6794
        46.2504         35.5004
  23411738.4354   -1265828.80549   -971632.97147                  23411737.6124
        44.2504         26.5004
  22006612.7684   -2364784.76649  -1830050.93147                  22006609.7714
        49.0004         35.7504
  20465467.4054   -1270519.62149   -975701.31448                  20465465.2604
        52.0004         43.2504
  20988349.4284     730872.92249    566445.54448                  20988345.9514
        52.7504         41.2504
  20825288.7604     618049.23849    478696.71948                  20825285.1174
        52.7504         41.7504
  20710354.9134    -350980.52349   -271545.64848                  20710350.1874
        53.0004         44.0004
 04  7  1 16 58  0.0000000  0  7G 3G 9G14G15G18G21G22
  22133739.3884   -1119737.69949   -866207.06247                  22133737.8944
        45.5004         35.0004
  23408542.5954   -1282622.53149   -984719.00847                  23408542.1814
        45.5004         27.2504
  22000352.4264   -2397684.75849  -1855687.28947                  22000349.6144
        48.5004         35.5004
  20462133.7934   -1288038.16449   -989352.15248                  20462131.2044
        52.0004         42.5004
  20990415.7924     741730.13349    574905.69848                  20990412.1074
        52.0004         40.7504
  20827175.4184     627963.04349    486421.74548                  20827171.5074
        52.5004         41.2504
  20709531.9254    -355304.89149   -274915.29448                  20709526.5474
        52.0004         43.7504
 04  7  1 16 58 10.0000000  0  7G 3G 9G14G15G18G21G22
  22131068.8134   -1133772.55549   -877143.31847                  22131066.9084
        45.5004         36.0004
  23405354.7754   -1299377.30949   -997774.63147                  23405353.9054
        44.7504         28.0004
  21994096.5874   -2430557.72749  -1881302.56347                  21994094.0134
        48.7504         36.5004
  20458803.8594   -1305536.94949  -1002987.54548                  20458801.6694
        52.0004         42.7504
  20992483.3264     752597.13749    583373.48548                  20992479.7914
        52.0004         41.7504
  20829067.7584     637907.16449    494170.41048                  20829063.8964
        53.0004         42.0004
  20708712.7094    -359611.19549   -278270.85648                  20708708.0954
        52.7504         44.2504
 04  7  1 16 58 20.0000000  0  7G 3G 9G14G15G18G21G22
  22128407.0264   -1147760.47749   -888042.98147                  22128404.9034
        45.7504         36.0004
  23402173.5474   -1316095.08249  -1010801.44247                  23402172.9374
        44.5004         29.0004
  21987845.8564   -2463405.70749  -1906898.37547                  21987843.9214
        49.2504         36.7504
  20455477.3484   -1323018.00449  -1016609.14348                  20455474.9454
        52.2504         43.0004
  20994553.0254     763471.84449    591847.29148                  20994549.5354
        51.2504         41.5004
  20830965.2644     647879.46549    501941.04348                  20830961.3814
        51.7504         42.0004
  20707896.0914    -363901.55549   -281613.98048                  20707891.1704
        52.5004         44.5004
 04  7  1 16 58 30.0000000  0  7G 3G 9G14G15G18G21G22
  22125754.3914   -1161700.18749   -898905.11647                  22125752.4934
        46.2504         35.7504
  23398999.1254   -1332774.48449  -1023798.37347                  23398998.9554
        45.0004         29.7504
  21981600.2934   -2496227.28949  -1932473.62847                  21981598.0404
        49.0004         37.5004
  20452154.5944   -1340480.04349  -1030215.91848                  20452151.9144
        51.7504         43.5004
  20996623.9284     774355.46949    600328.02348                  20996620.3704
        51.7504         42.0004
  20832868.4744     657881.30549    509734.67548                  20832865.0754
        52.0004         42.5004
  20707083.0334    -368174.69549   -284943.70548                  20707078.0444
        52.0004         44.5004
 04  7  1 16 58 40.0000000  0  7G 3G 9G14G15G18G21G22
  22123110.7624   -1175594.05549   -909731.50047                  22123108.6404
        46.5004         36.0004
  23395831.8874   -1349417.91849  -1036767.24247                  23395831.4884
        44.5004         28.7504
  21975358.9854   -2529024.91049  -1958030.21247                  21975356.8294
        48.7504         37.5004
  20448834.7774   -1357925.42249  -1043809.71848                  20448831.7274
        52.2504         43.5004
  20998696.0454     785245.54349    608813.79448                  20998692.6004
        51.0004         41.5004
  20834776.9184     667910.21549    517549.40048                  20834773.1544
        51.5004         42.2504
  20706272.3674    -372433.10249   -288261.94148                  20706267.8484
        52.7504         44.5004
 04  7  1 16 58 50.0000000  0  7G 3G 9G14G15G18G21G22
  22120474.9834   -1189443.28549   -920523.10247                  22120473.2174
        44.0004         35.5004
  23392671.3404   -1366026.36349  -1049708.87147                  23392671.4034
        45.0004         28.7504
  21969122.4344   -2561799.68449  -1983568.97947                  21969119.8524
        49.0004         36.7504
  20445517.7124   -1375355.23049  -1057391.38248                  20445515.0984
        52.0004         43.5004
  21000769.5684     796140.82449    617303.62148                  21000766.0644
        51.0004         41.5004
  20836690.3814     677964.88749    525384.20248                  20836686.8654
        51.0004         42.0004
  20705464.4684    -376678.05949   -291569.70048                  20705460.1454
        51.7504         44.5004
 04  7  1 16 59  0.0000000  0  7G 3G 9G14G15G18G21G22
  22117848.7534   -1203244.43049   -931277.23447                  22117846.8534
        46.2504         35.2504
  23389518.3684   -1382596.41449  -1062620.57347                  23389518.5224
        44.7504         29.5004
  21962890.4344   -2594548.12549  -2009087.23247                  21962887.7814
        49.0004         36.7504
  20442204.7494   -1392766.07049  -1070958.26448                  20442202.2294
        52.0004         44.0004
  21002844.5384     807044.61349    625800.07048                  21002840.5314
        51.0004         41.2504
  20838609.2094     688048.81349    533241.79648                  20838605.8194
        51.5004         41.7504
  20704660.3194    -380906.21549   -294864.37248                  20704655.4504
        52.0004         44.5004
 04  7  1 16 59 10.0000000  0  7G 3G 9G14G15G18G21G22
  22115232.0894   -1216996.64549   -941993.24947                  22115229.7144
        47.5004         35.2504
  23386372.5994   -1399127.17649  -1075501.66747                  23386372.9384
        44.5004         27.0004
  21956663.7744   -2627269.31649  -2034584.24547                  21956661.2694
        50.0004         36.5004
  20438895.0434   -1410157.03949  -1084509.68248                  20438892.7234
        52.5004         43.5004
  21004921.1454     817957.76649    634303.82648                  21004917.2594
        51.0004         40.7504
  20840533.7744     698162.79349    541122.80548                  20840530.2454
        52.7504         42.0004
  20703858.7184    -385116.79349   -298145.33148                  20703854.1974
        53.0004         43.5004
 04  7  1 16 59 20.0000000  0  7G 3G 9G14G15G18G21G22
  22112624.5094   -1230700.13749   -952671.29347                  22112622.1864
        45.0004         35.5004
  23383234.4414   -1415618.81249  -1088352.27247                  23383234.4154
        43.7504         29.5004
  21950442.7784   -2659963.48849  -2060060.21147                  21950440.0864
        49.7504         37.2504
  20435589.6074   -1427528.38349  -1098045.78048                  20435587.2484
        52.5004         43.5004
  21006999.4184     828879.85949    642814.54648                  21006995.9664
        51.5004         41.2504
  20842464.1314     708306.45349    549026.95148                  20842460.2614
        52.0004         42.2504
  20703060.9564    -389310.14849   -301412.88448                  20703055.7524
        52.0004         44.7504
 04  7  1 16 59 30.0000000  0  7G 3G 9G14G15G18G21G22
  22110024.7824   -1244362.16449   -963317.01647                  22110022.4384
        45.5004         35.7504
  23380101.9324   -1432078.44149  -1101177.93547                  23380101.6554
        44.0004         28.2504
  21944224.5804   -2692637.74249  -2085520.66447                  21944222.2814
        49.5004         37.0004
  20432286.3174   -1444887.19149  -1111572.10748                  20432284.0204
        52.0004         44.0004
  21009078.1784     839803.71149    651326.63048                  21009074.6614
        51.2504         40.5004
  20844398.9544     718472.71549    556948.71148                  20844394.7764
        52.5004         42.0004
  20702264.9034    -393493.47349   -304672.62348                  20702260.0554
        53.0004         44.5004
 04  7  1 16 59 40.0000000  0  7G 3G 9G14G15G18G21G22
  22107434.1314   -1257974.46549   -973924.00747                  22107432.0994
        44.7504         35.5004
  23376977.7234   -1448497.76649  -1113972.16547                  23376977.5224
        44.0004         28.5004
  21938012.5394   -2725283.80949  -2110959.13747                  21938009.6394
        49.7504         37.7504
  20428987.0694   -1462225.23049  -1125082.27648                  20428984.5464
        52.5004         43.7504
  21011158.7984     850737.48449    659846.45348                  21011155.1334
        52.0004         41.2504
  20846339.4004     728669.91049    564894.57548                  20846335.6574
        52.0004         42.5004
  20701472.3204    -397658.60949   -307918.17348                  20701467.1364
        52.0004         44.7504
 04  7  1 16 59 50.0000000  0  7G 3G 9G14G15G18G21G22
  22104852.6194   -1271539.98449   -984494.54147                  22104850.5604
        46.0004         35.7504
  23373859.9874   -1464879.71549  -1126737.32047                  23373860.0284
        43.5004         29.0004
  21931804.9094   -2757904.61349  -2136377.94047                  21931802.5764
        50.0004         37.5004
  20425690.6824   -1479545.41849  -1138578.51848                  20425688.5744
        52.0004         43.2504
  21013240.7604     861678.04749    668371.56448                  21013236.9484
        51.5004         41.0004
  20848285.0154     738895.03949    572862.20448                  20848281.3214
        52.5004         42.2504
  20700682.5754    -401808.62549   -311151.95948                  20700677.7514
        53.2504         44.7504
 04  7  1 17  0  0.0000000  0  7G 3G 9G14G15G18G21G22
  22102280.7114   -1285058.48449   -995028.43047                  22102278.3324
        45.5004         35.5004
  23370749.9834   -1481223.96549  -1139473.05147                  23370750.1704
        44.5004         29.0004
  21925602.2514   -2790499.92249  -2161776.86547                  21925599.6614
        50.2504         37.0004
  20422398.8024   -1496847.51649  -1152060.67048                  20422396.3124
        52.0004         43.0004
  21015323.8934     872625.64849    676902.15948                  21015320.3054
        52.2504         40.5004
  20850236.1094     749148.28549    580851.75048                  20850232.5014
        52.2504         42.0004
  20699895.8394    -405943.32049   -314373.79348                  20699891.6104
        52.5004         44.5004
 04  7  1 17  0 10.0000000  0  7G 3G 9G14G15G18G21G22
  22099716.5994   -1298529.29749  -1005525.17047                  22099714.8454
        46.7504         36.0004
  23367647.4024   -1497529.86349  -1152178.90747                  23367646.9514
        44.5004         28.0004
  21919404.5194   -2823069.01249  -2187155.35247                  21919402.1394
        49.2504         37.0004
  20419109.8624   -1514130.90649  -1165528.24148                  20419107.3204
        52.2504         43.2504
  21017408.7654     883580.73849    685438.58548                  21017405.0604
        51.7504         40.7504
  20852192.8464     759430.17249    588863.59748                  20852189.0304
        52.2504         42.0004
  20699112.2854    -410062.16049   -317583.27548                  20699107.3824
        52.5004         44.5004
 04  7  1 17  0 20.0000000  0  7G 3G 9G14G15G18G21G22
  22097162.5064   -1311952.16849  -1015984.55847                  22097160.6234
        47.5004         35.2504
  23364551.1604   -1513796.98449  -1164854.57547                  23364550.8694
        44.7504         27.0004
  21913211.7474   -2855611.46149  -2212513.11247                  21913209.3404
        49.0004         36.2504
  20415824.6094   -1531395.17649  -1178980.91848                  20415821.4594
        52.5004         42.7504
  21019494.8774     894543.62149    693981.08648                  21019491.3484
        51.5004         40.2504
  20854154.5904     769740.98049    596897.98248                  20854151.0794
        51.7504         41.5004
  20698331.3724    -414164.88349   -320780.21148                  20698326.4314
        53.5004         43.7504
 04  7  1 17  0 30.0000000  0  7G 3G 9G14G15G18G21G22
  22094616.9604   -1325330.03149  -1026408.85947                  22094614.6254
        47.0004         36.0004
  23361462.2234   -1530028.23049  -1177502.28447                  23361462.3074
        43.7504         27.5004
  21907023.7344   -2888130.27049  -2237852.42447                  21907021.0114
        48.7504         37.5004
  20412542.2404   -1548643.30949  -1192421.01748                  20412539.2984
        53.0004         43.2504
  21021581.9924     905511.27349    702527.32248                  21021578.2574
        48.7504         41.2504
  20856121.6874     780077.67249    604952.54848                  20856117.9184
        49.2504         42.5004
  20697552.9484    -418254.52049   -323966.94348                  20697548.1964
        52.7504         44.5004
 04  7  1 17  0 40.0000000  0  7G 3G 9G14G15G18G21G22
  22092078.8624   -1338665.84049  -1036800.39247                  22092077.1774
        47.0004         35.2504
  23358380.5314   -1546226.49249  -1190124.29747                  23358379.9844
        43.7504         28.7504
  21900839.5964   -2920628.22749  -2263175.49447                  21900836.9704
        49.0004         37.0004
  20409262.4174   -1565878.17249  -1205850.77448                  20409259.9194
        52.5004         43.2504
  21023669.4004     916480.70749    711074.92548                  21023665.5854
        47.2504         41.0004
  20858093.2424     790437.41849    613025.07348                  20858089.8974
        47.7504         42.0004
  20696776.7554    -422334.12549   -327145.84648                  20696771.8174
        53.0004         44.5004
 04  7  1 17  0 50.0000000  0  7G 3G 9G14G15G18G21G22
  22089550.2344   -1351954.49249  -1047155.19147                  22089548.2574
        47.0004         36.0004
  23355305.1494   -1562386.65649  -1202716.60447                  23355304.3104
        44.2504         29.0004
  21894660.5104   -2953100.17249  -2288478.30047                  21894658.0584
        50.0004         38.2504
  20405986.2934   -1583094.59449  -1219266.16248                  20405983.5684
        52.0004         43.7504
  21025758.2524     927456.91449    719627.80648                  21025754.4794
        47.7504         41.2504
  20860070.0474     800825.33249    621119.54148                  20860066.2504
        48.0004         42.5004
  20696003.3884    -426398.63749   -330313.00648                  20695998.6104
        52.7504         45.0004
 04  7  1 17  1  0.0000000  0  7G 3G 9G14G15G18G21G22
  22087030.8904   -1365193.03549  -1057470.93447                  22087029.0744
        46.7504         36.0004
  23352237.6604   -1578505.63749  -1215276.81547                  23352237.2764
        44.2504         28.5004
  21888486.4434   -2985543.21149  -2313758.58847                  21888483.8254
        49.7504         37.7504
  20402714.4034   -1600289.68749  -1232664.93648                  20402711.7514
        52.5004         43.0004
  21027848.6004     938442.81349    728188.24348                  21027844.9604
        50.0004         41.2504
  20862052.3674     811244.30149    629238.22048                  20862048.9664
        50.0004         42.7504
  20695233.3244    -430445.15249   -333466.13348                  20695228.5544
        53.2504         45.0004
 04  7  1 17  1 10.0000000  0  7G 3G 9G14G15G18G21G22
  22084520.2254   -1378386.82049  -1067751.80547                  22084518.3144
        47.2504         35.5004
  23349176.7034   -1594588.72749  -1227809.06647                  23349177.0234
        44.5004         28.5004
  21882317.7194   -3017962.63349  -2339020.45947                  21882315.0484
        50.2504         38.0004
  20399445.1874   -1617468.69149  -1246051.16748                  20399442.1784
        52.5004         43.0004
  21029940.2074     949432.98449    736752.00748                  21029936.7534
        52.0004         41.0004
  20864040.2034     821688.92249    637376.87448                  20864037.0274
        52.2504         43.0004
  20694465.5344    -434479.08649   -336609.45548                  20694460.9644
        53.2504         44.5004
 04  7  1 17  1 20.0000000  0  7G 3G 9G14G15G18G21G22
  22082018.1674   -1391535.47349  -1077997.52047                  22082016.5764
        47.7504         35.5004
  23346123.5394   -1610635.56249  -1240313.09147                  23346123.3254
        45.0004         28.5004
  21876152.7674   -3050358.02049  -2364263.61847                  21876149.6304
        50.2504         37.0004
  20396178.8494   -1634631.27749  -1259424.61048                  20396176.4344
        53.0004         43.0004
  21032032.1334     960427.60949    745319.24748                  21032028.2954
        52.0004         40.7504
  20866032.8074     832159.60549    645535.83348                  20866029.2344
        51.7504         42.5004
  20693700.5124    -438500.16849   -339742.76948                  20693695.8464
        53.0004         44.5004
 04  7  1 17  1 30.0000000  0  7G 3G 9G14G15G18G21G22
  22079525.2764   -1404633.53549  -1088203.79747                  22079523.3704
        47.5004         35.0004
  23343077.9234   -1626640.62549  -1252784.54847                  23343077.3724
        43.7504         27.5004
  21869993.9824   -3082723.89549  -2389483.75547                  21869991.0404
        50.2504         36.5004
  20392917.3544   -1651771.94949  -1272780.98148                  20392914.8714
        52.7504         42.5004
  21034126.4074     971432.06649    753894.14548                  21034122.6134
        51.7504         40.5004
  20868031.3054     842661.67249    653719.25448                  20868027.7364
        52.0004         42.2504
  20692938.6604    -442503.03949   -342861.89148                  20692933.6804
        53.7504         44.0004
 04  7  1 17  1 40.0000000  0  7G 3G 9G14G15G18G21G22
  22077041.5514   -1417688.63749  -1098376.59347                  22077039.0494
        47.7504         35.5004
  23340037.9794   -1642611.44949  -1265229.32947                  23340038.2524
        44.7504         28.0004
  21863839.0344   -3115067.75049  -2414686.75347                  21863835.9044
        50.5004         37.5004
  20389658.2454   -1668898.26649  -1286126.14848                  20389655.8604
        52.5004         43.5004
  21036220.7104     982438.71149    762470.74648                  21036216.7474
        52.0004         41.0004
  20870034.2324     853187.57049    661921.23748                  20870030.7904
        52.7504         42.2504
  20692178.7234    -446495.40649   -345972.83048                  20692174.1374
        53.2504         44.7504
 04  7  1 17  1 50.0000000  0  7G 3G 9G14G15G18G21G22
  22074566.6764   -1430694.18749  -1108510.79347                  22074564.5694
        48.0004         35.2504
  23337006.7754   -1658541.27349  -1277642.16747                  23337006.8214
        44.5004         27.0004
  21857689.7764   -3147382.88349  -2439867.37447                  21857686.6094
        49.5004         37.0004
  20386403.3574   -1686003.53549  -1299454.93548                  20386400.5554
        51.7504         43.0004
  21038316.9994     993454.05549    771054.12148                  21038313.0454
        51.2504         41.0004
  20872042.9134     863743.88349    670146.93448                  20872039.4074
        52.5004         42.2504
  20691422.6134    -450470.64549   -349070.41948                  20691417.5794
        53.2504         44.5004
 04  7  1 17  2  0.0000000  0  7G 3G 9G14G15G18G21G22
  22072100.9774   -1443651.96149  -1118607.76047                  22072098.6644
        47.5004         36.2504
  23333982.9924   -1674431.93049  -1290024.49347                  23333982.6654
        44.5004         27.0004
  21851545.3784   -3179671.07849  -2465026.99247                  21851542.0704
        49.5004         37.2504
  20383152.0114   -1703089.51249  -1312768.67748                  20383149.2514
        52.0004         43.5004
  21040414.5814    1004476.30549    779642.89148                  21040410.4204
        51.7504         41.2504
  20874057.3504     874328.84849    678394.95348                  20874053.5064
        52.0004         43.0004
  20690668.8534    -454430.64149   -352156.12648                  20690664.0964
        53.5004         44.7504
